Location: Antichan
(42.9728°N, 0.6667°E)
Time: 09:03:11
(UTC+00:00)

SL-08 RB Rocket - Pass Details

Date: 15 August 2020
Orbit: 646 x 685 km, 97.8° (Epoch: 18 September)

Event Time Altitude Azimuth Distance (km) Brightness Sun altitude
Rises 19:31:28 0° 165° (SSE) 3,017 6.7 -6.3°
Reaches altitude 10° 19:33:41 10° 164° (SSE) 2,111 5.9 -6.7°
Maximum altitude 19:38:19 87° 80° (E) 690 3.8 -7.4°
Drops below altitude 10° 19:43:01 10° 348° (NNW) 2,139 6.9 -8.2°
Sets 19:45:16 0° 348° (NNW) 3,060 7.7 -8.6°
